Hourly Weather Lukyaniki

Today, 17 May, Monday

Time Temperature Precipitation Wind Pressure Humidity
00:00 +13°C° 0 mm 2 mps 739 mmHg 93%
01:00 +13°C° 0 mm 2 mps 739 mmHg 94%
02:00 +13°C° 0 mm 2 mps 739 mmHg 94%
03:00 +13°C° 0 mm 2 mps 739 mmHg 93%
04:00 +13°C° 0 mm 2 mps 739 mmHg 92%
05:00 +13°C° 0 mm 2 mps 739 mmHg 91%
06:00 +15°C° 0 mm 2 mps 739 mmHg 83%
07:00 +17°C° 0 mm 3 mps 739 mmHg 75%
08:00 +19°C° 0 mm 3 mps 738 mmHg 68%
09:00 +20°C° 0 mm 4 mps 738 mmHg 63%
10:00 +22°C° 0 mm 4 mps 738 mmHg 59%
11:00 +23°C° 0 mm 5 mps 737 mmHg 54%
12:00 +25°C° 0 mm 5 mps 737 mmHg 55%
13:00 +26°C° 0 mm 5 mps 736 mmHg 55%
14:00 +27°C° 0 mm 6 mps 736 mmHg 56%
15:00 +26°C° 0.1 mm 5 mps 735 mmHg 58%
16:00 +26°C° 0.1 mm 5 mps 735 mmHg 60%
17:00 +25°C° 0.1 mm 5 mps 734 mmHg 61%
18:00 +23°C° 0 mm 5 mps 734 mmHg 66%
19:00 +21°C° 0 mm 4 mps 734 mmHg 71%
20:00 +20°C° 0 mm 4 mps 734 mmHg 75%
21:00 +19°C° 0 mm 4 mps 734 mmHg 77%
22:00 +19°C° 0 mm 4 mps 734 mmHg 80%
23:00 +18°C° 0 mm 4 mps 733 mmHg 82%

Tomorrow, 18 May, Tuesday

Time Temperature Precipitation Wind Pressure Humidity
00:00 +18°C° 0.1 mm 4 mps 733 mmHg 83%
01:00 +17°C° 0.1 mm 4 mps 733 mmHg 86%
02:00 +17°C° 0.1 mm 4 mps 733 mmHg 89%
03:00 +17°C° 0 mm 4 mps 733 mmHg 91%
04:00 +17°C° 0 mm 4 mps 733 mmHg 92%
05:00 +17°C° 0 mm 4 mps 733 mmHg 94%
06:00 +18°C° 0 mm 4 mps 733 mmHg 90%
07:00 +19°C° 0 mm 5 mps 734 mmHg 87%
08:00 +20°C° 0 mm 5 mps 734 mmHg 83%
09:00 +21°C° 0.1 mm 5 mps 734 mmHg 78%
10:00 +22°C° 0.1 mm 5 mps 734 mmHg 72%
11:00 +23°C° 0.1 mm 5 mps 734 mmHg 67%
12:00 +21°C° 1.4 mm 4 mps 734 mmHg 75%
13:00 +20°C° 1.4 mm 3 mps 734 mmHg 84%
14:00 +18°C° 1.4 mm 2 mps 734 mmHg 92%
15:00 +19°C° 0.7 mm 2 mps 734 mmHg 89%
16:00 +19°C° 0.7 mm 2 mps 734 mmHg 86%
17:00 +20°C° 0.7 mm 3 mps 734 mmHg 83%
18:00 +19°C° 1.3 mm 3 mps 734 mmHg 86%
19:00 +18°C° 1.3 mm 3 mps 734 mmHg 89%
20:00 +16°C° 1.3 mm 3 mps 734 mmHg 92%
21:00 +16°C° 0.2 mm 3 mps 734 mmHg 94%
22:00 +15°C° 0.2 mm 2 mps 734 mmHg 95%
23:00 +15°C° 0.2 mm 2 mps 734 mmHg 97%

Day after tomorrow, 19 May, Wednesday

Time Temperature Precipitation Wind Pressure Humidity
00:00 +14°C° 0 mm 2 mps 734 mmHg 97%
01:00 +14°C° 0 mm 2 mps 734 mmHg 97%
02:00 +13°C° 0 mm 2 mps 734 mmHg 98%
03:00 +13°C° 0 mm 2 mps 734 mmHg 97%
04:00 +13°C° 0 mm 2 mps 734 mmHg 96%
05:00 +13°C° 0 mm 2 mps 734 mmHg 96%
06:00 +15°C° 0 mm 2 mps 734 mmHg 90%
07:00 +16°C° 0 mm 2 mps 734 mmHg 85%
08:00 +18°C° 0 mm 2 mps 734 mmHg 79%
09:00 +18°C° 0.3 mm 2 mps 734 mmHg 82%
10:00 +18°C° 0.3 mm 2 mps 734 mmHg 84%
11:00 +18°C° 0.3 mm 2 mps 734 mmHg 86%
12:00 +19°C° 0.4 mm 3 mps 734 mmHg 81%
13:00 +20°C° 0.4 mm 3 mps 734 mmHg 77%
14:00 +21°C° 0.4 mm 4 mps 734 mmHg 72%
15:00 +20°C° 0.4 mm 4 mps 734 mmHg 75%
16:00 +19°C° 0.4 mm 4 mps 734 mmHg 79%
17:00 +19°C° 0.4 mm 3 mps 733 mmHg 82%
18:00 +18°C° 0.1 mm 3 mps 734 mmHg 87%
19:00 +16°C° 0.1 mm 3 mps 734 mmHg 91%
20:00 +15°C° 0.1 mm 2 mps 734 mmHg 95%
21:00 +15°C° 0 mm 2 mps 734 mmHg 96%
22:00 +14°C° 0 mm 2 mps 734 mmHg 96%
23:00 +13°C° 0 mm 2 mps 734 mmHg 97%

20 May, Thursday

Time Temperature Precipitation Wind Pressure Humidity
00:00 +13°C° 0 mm 2 mps 734 mmHg 97%
01:00 +13°C° 0 mm 2 mps 734 mmHg 97%
02:00 +12°C° 0 mm 2 mps 734 mmHg 96%
03:00 +12°C° 0 mm 2 mps 734 mmHg 96%
04:00 +12°C° 0 mm 2 mps 734 mmHg 96%
05:00 +12°C° 0 mm 2 mps 734 mmHg 96%
06:00 +13°C° 0.1 mm 2 mps 734 mmHg 90%
07:00 +15°C° 0.1 mm 2 mps 734 mmHg 85%
08:00 +16°C° 0.1 mm 2 mps 734 mmHg 80%
09:00 +17°C° 0.7 mm 2 mps 733 mmHg 77%
10:00 +18°C° 0.7 mm 2 mps 733 mmHg 75%
11:00 +18°C° 0.7 mm 2 mps 733 mmHg 72%
12:00 +18°C° 1.3 mm 3 mps 733 mmHg 76%
13:00 +17°C° 1.3 mm 4 mps 733 mmHg 79%
14:00 +17°C° 1.3 mm 4 mps 733 mmHg 83%
15:00 +15°C° 0.4 mm 5 mps 733 mmHg 85%
16:00 +14°C° 0.4 mm 5 mps 734 mmHg 87%
17:00 +13°C° 0.4 mm 6 mps 734 mmHg 89%
18:00 +12°C° 0 mm 5 mps 734 mmHg 89%
19:00 +10°C° 0 mm 5 mps 735 mmHg 90%
20:00 +9°C° 0 mm 5 mps 736 mmHg 91%
21:00 +9°C° 0 mm 5 mps 736 mmHg 90%
22:00 +8°C° 0 mm 5 mps 737 mmHg 89%
23:00 +8°C° 0 mm 5 mps 737 mmHg 88%

21 May, Friday

Time Temperature Precipitation Wind Pressure Humidity
00:00 +8°C° 0 mm 5 mps 738 mmHg 89%
01:00 +8°C° 0 mm 5 mps 738 mmHg 90%
02:00 +8°C° 0 mm 4 mps 738 mmHg 91%
03:00 +7°C° 0 mm 4 mps 739 mmHg 91%
04:00 +8°C° 0 mm 3 mps 739 mmHg 92%
05:00 +8°C° 0 mm 3 mps 740 mmHg 92%
06:00 +10°C° 0 mm 3 mps 740 mmHg 82%
07:00 +11°C° 0 mm 3 mps 741 mmHg 71%
08:00 +13°C° 0 mm 3 mps 741 mmHg 61%
09:00 +15°C° 0 mm 2 mps 741 mmHg 58%
10:00 +16°C° 0 mm 2 mps 742 mmHg 55%
11:00 +16°C° 0 mm 2 mps 742 mmHg 52%
12:00 +17°C° 0 mm 2 mps 742 mmHg 53%
13:00 +18°C° 0 mm 1 mps 742 mmHg 54%
14:00 +18°C° 0 mm 1 mps 741 mmHg 55%
15:00 +15°C° 0.9 mm 1 mps 741 mmHg 67%
16:00 +14°C° 0.9 mm 2 mps 741 mmHg 80%
17:00 +13°C° 0.9 mm 2 mps 741 mmHg 92%
18:00 +12°C° 1.2 mm 1 mps 741 mmHg 94%
19:00 +12°C° 1.2 mm 1 mps 741 mmHg 95%
20:00 +11°C° 1.2 mm 1 mps 741 mmHg 96%
21:00 +11°C° 0.8 mm 1 mps 740 mmHg 97%
22:00 +11°C° 0.8 mm 1 mps 740 mmHg 97%
23:00 +11°C° 0.8 mm 1 mps 740 mmHg 98%

22 May, Saturday

Time Temperature Precipitation Wind Pressure Humidity
00:00 +11°C° 0.4 mm 1 mps 740 mmHg 97%
01:00 +9°C° 0.4 mm 2 mps 741 mmHg 97%
02:00 +9°C° 0.4 mm 2 mps 741 mmHg 97%
03:00 +9°C° 0 mm 2 mps 741 mmHg 97%
04:00 +9°C° 0 mm 2 mps 742 mmHg 96%
05:00 +9°C° 0 mm 2 mps 742 mmHg 96%
06:00 +10°C° 0 mm 2 mps 743 mmHg 90%
07:00 +13°C° 0 mm 2 mps 743 mmHg 83%
08:00 +14°C° 0 mm 2 mps 744 mmHg 77%
09:00 +15°C° 0 mm 2 mps 744 mmHg 68%
10:00 +16°C° 0 mm 2 mps 745 mmHg 60%
11:00 +17°C° 0 mm 2 mps 745 mmHg 51%
12:00 +18°C° 0 mm 2 mps 745 mmHg 49%
13:00 +18°C° 0 mm 2 mps 745 mmHg 48%
14:00 +19°C° 0 mm 2 mps 745 mmHg 46%
15:00 +18°C° 0 mm 2 mps 746 mmHg 50%
16:00 +18°C° 0 mm 2 mps 746 mmHg 54%
17:00 +19°C° 0 mm 1 mps 746 mmHg 58%
18:00 +16°C° 0 mm 1 mps 746 mmHg 63%
19:00 +14°C° 0 mm 1 mps 746 mmHg 68%
20:00 +12°C° 0 mm 0 mps 746 mmHg 74%
21:00 +11°C° 0 mm 0 mps 746 mmHg 75%
22:00 +11°C° 0 mm 0 mps 746 mmHg 77%
23:00 +11°C° 0 mm 1 mps 746 mmHg 78%
Show more

We Need Your Consent

Meteoprog and our Service Providers may store and access personal data such as cookies, device identifiers or other similar technologies on your device and process such data to personalise content and ads, as well as provide social media features and to analyse the traffic.

  • Store and/or access information on your device

    Cookies, device identifiers or other information can be stored or accessed on your device for the purposes indicated above.

  • Personalised ads and content, ad and content measurement, audience insights, and products development

    Ads and content can be personalised based on a profile. More data can be added to better personalise ads and content. Ad and content performance can be measured. Insights about the audience who saw the ads and content can be derived. Such data can be used to develop or improve user’s experience, systems and software.

By clicking ‘I Agree’ you will allow the use of indicated cookies, device identifiers, web beacons or other similar technologies. Your settings can be changed in the browser on your device.

For certain purposes, legitimate interests may be relied on, rather than consent. You can read more about this in our Privacy and Cookie Policy.